Stations météo

réclame
Mon MeteoGroup
Brodersby-Schönhagen, Allemagne (10042): Température de l'air & dewpoint: 14.09.2018 22:00:00 - 20.09.2018 22:00:00 (CEST)Brodersby-Schönhagen, Allemagne (10042): Température de l'air 5cm & Température de l'air -5cm: 14.09.2018 22:00:00 - 20.09.2018 22:00:00 (CEST)Brodersby-Schönhagen, Allemagne (10042): Température de l'air -20cm & Température de l'air -100cm: 14.09.2018 22:00:00 - 20.09.2018 22:00:00 (CEST)Brodersby-Schönhagen, Allemagne (10042): Vitesse du vent & gusts: 14.09.2018 22:00:00 - 20.09.2018 22:00:00 (CEST)Brodersby-Schönhagen, Allemagne (10042): Direction du vent: 14.09.2018 22:00:00 - 20.09.2018 22:00:00 (CEST)Brodersby-Schönhagen, Allemagne (10042): reduced air pressure: 14.09.2018 22:00:00 - 20.09.2018 22:00:00 (CEST)Brodersby-Schönhagen, Allemagne (10042): visibility: 14.09.2018 22:00:00 - 20.09.2018 22:00:00 (CEST)Brodersby-Schönhagen, Allemagne (10042): Ensoleillement: 14.09.2018 22:00:00 - 20.09.2018 22:00:00 (CEST)Brodersby-Schönhagen, Allemagne (10042): Quantités de précipitations: 14.09.2018 22:00:00 - 20.09.2018 22:00:00 (CEST)
Date & Time tt [°C] td [°C] tt 5cm [°C] tt -5cm [°C] tt -20cm [°C] tt -100cm [°C] ff [km/h] ff [knt] fx [km/h] fx [knt] dd ppp [hPa] vv [km] sd [min] rr [mm]
20.09.2018 22:00:00 17,2 14,7 13,8 17,6 18,2 16,1 5 3 10 5 S 1010,5 31 0 0,0
20.09.2018 21:00:00 18,3 14,9 16,6 18,2 18,3 16,1 7 4 16 9 SSW 1011,0 34 0 0,0
20.09.2018 20:00:00 19,3 14,6 18,5 18,8 18,4 16,1 13 7 34 18 SW 1011,4 37 0 0,0
20.09.2018 19:00:00 20,3 14,9 19,7 19,3 18,4 16,1 19 10 36 20 WSW 1011,7 36 0 0,0
20.09.2018 18:00:00 21,3 14,6 20,8 19,7 18,4 16,1 20 11 35 19 SW 1011,8 37 0 0,0
20.09.2018 17:00:00 20,9 14,7 20,8 20,0 18,2 16,1 16 9 40 21 SW 1012,2 46 7 0,0
20.09.2018 16:00:00 20,7 14,1 21,0 20,0 18,1 16,1 29 16 47 26 WSW 1012,5 41 11 0,0
20.09.2018 15:00:00 20,5 14,0 21,0 19,9 17,9 16,1 26 14 45 24 SW 1013,1 43 0 0,0
20.09.2018 14:00:00 20,1 14,5 20,5 19,6 17,7 16,1 25 14 44 24 SW 1013,1 51 4 0,0
20.09.2018 13:00:00 19,8 14,7 20,4 19,1 17,5 16,1 24 13 41 22 SW 1013,3 41 3 0,0
20.09.2018 12:00:00 19,4 14,7 19,7 18,8 17,3 16,1 28 15 46 25 SW 1013,6 38 14 0,0
20.09.2018 11:00:00 19,0 14,7 19,5 18,3 17,1 16,1 26 14 47 25 SW 1013,8 34 9 0,0
20.09.2018 10:00:00 18,8 14,7 19,7 17,4 17,0 16,1 27 15 40 21 SW 1013,6 37 46 0,0
20.09.2018 09:00:00 18,0 14,4 17,8 16,9 17,0 16,0 21 12 35 19 SW 1013,5 32 24 0,0
20.09.2018 08:00:00 17,9 14,2 17,5 16,7 17,0 16,0 22 12 37 20 SW 1013,5 37 7 0,0
20.09.2018 07:00:00 18,0 14,2 17,5 16,7 17,1 16,0 21 11 31 17 SW 1013,5 40 0 0,0
20.09.2018 06:00:00 18,0 14,2 17,2 16,7 17,1 16,0 24 13 34 18 SW 1013,5 42 0 0,0
20.09.2018 05:00:00 18,2 14,2 17,6 16,7 17,2 16,0 22 12 30 16 SW 1013,4 37 0 0,0
20.09.2018 04:00:00 18,1 14,1 17,5 16,5 17,3 16,0 21 12 35 19 SW 1013,4 39 0 0,0
20.09.2018 03:00:00 17,9 13,8 16,7 16,7 17,5 16,0 20 11 36 19 SW 1013,2 43 0 0,0
20.09.2018 02:00:00 18,3 13,7 17,3 16,9 17,7 16,0 23 13 44 24 SW 1013,4 38 0 0,0
20.09.2018 01:00:00 19,1 13,5 18,0 17,0 17,9 16,0 29 16 47 25 SW 1013,6 44 0 0,0
20.09.2018 00:00:00 19,1 13,3 17,8 17,2 18,1 16,0 25 14 36 19 SW 1013,6 37 0 0,0
19.09.2018 23:00:00 18,5 14,1 17,2 17,5 18,3 16,0 20 11 27 14 SSW 1013,9 31 0 0,0
19.09.2018 22:00:00 17,7 14,5 16,2 18,0 18,6 16,0 13 7 22 12 SW 1014,0 27 0 0,0
19.09.2018 21:00:00 18,0 14,7 16,4 18,8 18,8 16,0 12 7 22 12 SW 1013,8 25 0 0,0
19.09.2018 20:00:00 19,1 14,9 18,0 19,7 19,0 16,0 16 8 29 16 WSW 1013,7 26 0 0,0
19.09.2018 19:00:00 20,5 15,3 19,7 20,7 19,0 16,0 19 11 39 21 W 1013,4 30 5 0,0
19.09.2018 18:00:00 23,7 14,5 23,2 21,6 18,9 16,0 16 9 45 24 SSW 1012,6 47 12 0,0
19.09.2018 17:00:00 24,2 14,2 24,2 22,4 18,6 16,0 21 11 45 24 SSW 1012,7 41 47 0,0
19.09.2018 16:00:00 23,6 14,4 24,3 22,5 18,2 15,9 18 10 41 22 SSW 1013,3 47 46 0,0
19.09.2018 15:00:00 23,3 15,0 25,4 21,8 17,7 15,9 21 12 40 22 SSW 1014,0 48 47 0,0
19.09.2018 14:00:00 23,0 15,2 25,7 20,7 17,3 15,9 22 12 33 18 SSW 1014,4 36 34 0,0
19.09.2018 13:00:00 21,4 14,0 22,8 19,8 16,8 15,9 25 13 45 24 SW 1014,7 43 57 0,0
19.09.2018 12:00:00 20,5 13,9 22,1 18,4 16,5 15,9 28 15 41 22 SW 1015,0 45 59 0,0
19.09.2018 11:00:00 18,1 14,4 18,2 17,4 16,3 15,9 24 13 38 21 SW 1014,8 27 47 0,0
19.09.2018 10:00:00 17,7 15,0 19,9 16,3 16,2 15,9 20 11 37 20 SW 1014,8 21 26 0,0
19.09.2018 09:00:00 15,9 14,6 15,7 15,8 16,2 15,9 23 13 33 18 SW 1014,7 13 0 0,0
19.09.2018 08:00:00 15,6 14,5 15,4 15,3 16,3 15,9 16 9 24 13 SW 1014,6 15 0 0,0
19.09.2018 07:00:00 14,8 14,0 14,1 15,0 16,4 15,9 13 7 17 9 SW 1014,7 16 0 0,0
19.09.2018 06:00:00 14,9 13,8 14,1 15,2 16,6 15,9 14 8 21 11 SW 1014,4 20 0 0,0
19.09.2018 05:00:00 15,0 13,9 13,9 15,4 16,8 15,9 16 8 21 12 SW 1014,2 18 0 0,0
19.09.2018 04:00:00 15,2 14,1 14,1 15,7 17,0 15,9 14 8 24 13 SW 1013,8 16 0 0,0
19.09.2018 03:00:00 15,6 14,4 14,5 16,0 17,3 15,9 14 8 25 14 SW 1013,3 15 0 0,0
19.09.2018 02:00:00 16,1 14,6 15,0 16,4 17,5 15,9 16 8 25 14 SW 1013,0 15 0 0,0
19.09.2018 01:00:00 16,3 14,4 15,2 16,8 17,8 15,9 16 9 26 14 WSW 1012,7 17 0 0,0
19.09.2018 00:00:00 16,9 14,3 15,8 17,2 18,1 15,9 17 9 29 16 WSW 1012,4 21 0 0,0
18.09.2018 23:00:00 17,5 13,9 16,4 17,8 18,4 15,9 21 11 44 24 WSW 1012,2 24 0 0,0
18.09.2018 22:00:00 17,8 14,3 16,8 18,4 18,7 15,9 20 11 33 18 WSW 1012,0 22 0 0,0
18.09.2018 21:00:00 18,1 14,7 17,0 19,2 19,0 15,9 19 10 28 15 W 1011,4 27 0 0,0
18.09.2018 20:00:00 19,0 15,4 17,8 20,4 19,2 15,9 17 9 44 24 W 1010,9 30 0 0,0
18.09.2018 19:00:00 21,7 14,6 20,9 22,0 19,1 15,9 25 13 47 26 W 1009,9 30 58 0,0
18.09.2018 18:00:00 27,8 14,5 27,3 23,6 18,8 15,9 14 8 29 16 SSW 1008,5 57 60 0,0
18.09.2018 17:00:00 28,5 13,2 29,1 23,9 18,4 15,9 19 11 33 18 SSW 1008,5 75 60 0,0
18.09.2018 16:00:00 28,0 13,4 29,2 23,8 17,8 15,9 21 12 39 21 S 1008,8 66 60 0,0
18.09.2018 15:00:00 27,5 13,4 29,5 23,2 17,0 15,9 21 12 33 18 S 1009,4 75 60 0,0
18.09.2018 14:00:00 23,8 14,9 27,1 21,9 16,3 15,9 15 8 22 12 SSE 1010,0 10 60 0,0
18.09.2018 13:00:00 22,2 14,1 25,6 20,0 15,6 15,9 14 8 21 11 SSE 1010,6 61 60 0,0
18.09.2018 12:00:00 21,6 14,3 24,3 18,0 15,1 15,9 15 8 26 14 SSE 1011,2 67 60 0,0
18.09.2018 11:00:00 19,8 11,8 21,3 16,1 14,7 15,9 13 7 21 11 SSE 1011,7 56 60 0,0
18.09.2018 10:00:00 18,6 11,8 20,1 14,5 14,6 15,9 15 8 21 12 S 1012,0 46 60 0,0
18.09.2018 09:00:00 17,3 10,4 17,7 13,4 14,6 15,9 12 7 20 11 S 1012,3 71 60 0,0
18.09.2018 08:00:00 15,7 9,7 14,4 12,9 14,8 15,8 13 7 20 11 S 1012,5 60 26 0,0
18.09.2018 07:00:00 15,2 9,1 13,1 13,0 14,9 15,8 14 8 22 12 S 1012,7 58 0 0,0
18.09.2018 06:00:00 15,3 10,4 13,2 13,2 15,1 15,8 14 8 19 11 S 1013,1 46 0 0,0
18.09.2018 05:00:00 15,4 9,4 13,1 13,4 15,3 15,8 12 6 18 10 S 1013,7 46 0 0,0
18.09.2018 04:00:00 15,1 10,5 12,8 13,8 15,5 15,8 12 7 16 8 S 1014,1 55 0 0,0
18.09.2018 03:00:00 16,0 11,4 13,6 14,2 15,7 15,9 10 6 16 9 S 1014,4 54 0 0,0
18.09.2018 02:00:00 16,0 13,5 14,1 14,6 15,9 15,9 12 6 19 11 S 1014,9 29 0 0,0
18.09.2018 01:00:00 16,1 13,9 13,8 14,7 16,2 15,9 11 6 16 8 SSE 1015,3 32 0 0,0
18.09.2018 00:00:00 15,0 14,5 11,6 14,8 16,5 15,9 9 5 13 7 SSE 1015,7 30 0 0,0
17.09.2018 23:00:00 12,6 12,2 10,7 15,5 16,8 15,9 6 3 7 4 S 1016,1 8 0 0,0
17.09.2018 22:00:00 13,3 12,6 11,3 16,2 17,1 15,9 0 0 5 3 N 1016,5 18 0 0,0
17.09.2018 21:00:00 14,7 12,7 12,1 17,1 17,3 15,9 0 0 6 3 N 1016,8 39 0 0,0
17.09.2018 20:00:00 16,3 12,6 13,5 18,1 17,5 15,9 6 4 13 7 WSW 1016,7 34 0 0,0
17.09.2018 19:00:00 18,8 12,6 17,7 19,3 17,5 15,9 11 6 19 10 SW 1016,6 59 42 0,0
17.09.2018 18:00:00 20,0 12,5 20,0 20,0 17,4 15,9 14 8 29 16 WSW 1016,6 66 43 0,0
17.09.2018 17:00:00 20,9 12,0 21,5 20,8 17,0 15,9 19 10 30 16 WSW 1016,7 72 60 0,0
17.09.2018 16:00:00 21,8 13,8 23,2 20,8 16,5 15,9 21 11 34 18 WSW 1017,1 58 60 0,0
17.09.2018 15:00:00 21,3 13,3 22,9 20,1 16,0 15,9 25 14 34 19 WSW 1017,2 59 60 0,0
17.09.2018 14:00:00 20,8 14,0 23,1 19,3 15,5 15,9 23 12 29 16 W 1017,2 51 60 0,0
17.09.2018 13:00:00 20,0 13,1 21,8 18,1 15,0 15,9 24 13 33 18 WSW 1017,3 45 42 0,0
17.09.2018 12:00:00 19,2 13,6 20,4 16,8 14,6 15,9 20 11 27 15 WSW 1017,6 42 39 0,0
17.09.2018 11:00:00 17,8 12,6 19,0 15,4 14,3 15,9 22 12 31 17 WSW 1017,8 34 59 0,0
17.09.2018 10:00:00 16,2 12,2 16,2 14,2 14,2 15,9 18 10 28 15 SW 1017,5 36 43 0,0
17.09.2018 09:00:00 14,7 11,0 14,6 13,3 14,2 15,9 20 11 24 13 SW 1017,5 36 3 0,0
17.09.2018 08:00:00 13,9 10,6 13,3 13,0 14,3 15,9 15 8 24 13 WSW 1017,1 34 1 0,0
17.09.2018 07:00:00 13,3 10,5 12,0 13,1 14,4 15,9 14 8 22 12 SW 1016,8 33 0 0,0
17.09.2018 06:00:00 14,6 10,8 13,5 13,2 14,4 15,9 15 8 22 12 SW 1017,0 41 0 0,0
17.09.2018 05:00:00 14,3 10,9 13,5 13,1 14,6 15,9 14 7 18 10 SW 1017,0 39 0 0,0
17.09.2018 04:00:00 13,6 10,7 12,0 13,2 14,7 16,0 11 6 18 10 SW 1016,6 37 0 0,0
17.09.2018 03:00:00 14,1 10,8 12,2 13,6 14,9 16,0 12 6 21 11 SW 1017,0 38 0 0,0
17.09.2018 02:00:00 15,3 11,0 13,8 13,8 15,1 16,0 16 9 25 13 SW 1017,2 44 0 0,0
17.09.2018 01:00:00 15,6 11,0 14,0 14,1 15,2 16,0 15 8 21 11 SSW 1017,6 47 0 0,0
17.09.2018 00:00:00 15,9 11,2 14,2 14,6 15,4 16,0 15 8 20 11 SSW 1017,8 50 0 0,0
16.09.2018 23:00:00 16,2 11,7 15,0 15,0 15,5 16,0 10 5 19 11 S 1018,1 44 0 0,0
16.09.2018 22:00:00 16,5 12,2 15,4 15,3 15,7 16,0 11 6 16 9 S 1018,4 45 0 0,0
16.09.2018 21:00:00 16,4 12,0 15,0 15,6 15,8 16,0 8 4 12 7 S 1018,8 43 0 0,0
16.09.2018 20:00:00 16,3 12,0 13,1 16,2 15,9 16,0 5 3 15 8 SSW 1018,7 41 0 0,0
16.09.2018 19:00:00 17,8 11,7 17,0 17,0 15,9 16,0 12 7 24 13 SW 1018,5 64 0 0,0
16.09.2018 18:00:00 18,6 11,4 18,0 17,5 15,8 16,0 19 11 37 20 SW 1018,6 57 0 0,0
16.09.2018 17:00:00 19,3 11,4 19,4 18,3 15,5 16,1 24 13 39 21 SSW 1018,9 58 32 0,0
16.09.2018 16:00:00 19,9 11,2 21,3 18,6 15,1 16,1 24 13 36 20 SW 1019,4 48 39 0,0
16.09.2018 15:00:00 19,0 10,8 20,3 18,1 14,6 16,1 21 12 39 21 SSW 1020,1 61 57 0,0
16.09.2018 14:00:00 18,7 11,5 20,2 17,0 14,1 16,1 22 12 41 22 SSW 1020,6 50 58 0,0
16.09.2018 13:00:00 18,1 11,2 20,1 16,2 13,6 16,1 23 12 36 20 SW 1021,2 52 50 0,0
16.09.2018 12:00:00 16,9 11,1 17,6 15,2 13,2 16,1 20 11 35 19 SSW 1021,8 75 39 0,0
16.09.2018 11:00:00 15,0 11,5 15,9 13,5 12,8 16,1 12 6 21 11 S 1022,1 52 6 0,0
16.09.2018 10:00:00 13,9 11,8 14,0 12,3 12,6 16,1 12 6 21 11 SSW 1022,3 31 0 0,0
16.09.2018 09:00:00 12,5 11,0 12,1 11,3 12,6 16,1 10 5 16 9 SSW 1022,5 29 38 0,0
16.09.2018 08:00:00 9,9 9,2 9,5 10,1 12,7 16,1 6 3 12 6 SSW 1022,8 39 28 0,0
16.09.2018 07:00:00 9,0 8,4 7,6 10,0 12,8 16,1 10 5 13 7 SSW 1022,6 40 0 0,0
16.09.2018 06:00:00 9,0 8,4 7,2 10,2 13,0 16,1 8 5 11 6 SSW 1022,5 37 0 0,0
16.09.2018 05:00:00 8,0 7,5 6,6 10,3 13,2 16,1 8 4 12 7 SW 1022,4 28 0 0,0
16.09.2018 04:00:00 8,5 8,1 6,5 10,6 13,5 16,1 6 3 10 5 SW 1022,8 21 0 0,0
16.09.2018 03:00:00 8,8 8,5 7,2 10,9 13,7 16,1 8 4 11 6 SW 1023,1 30 0 0,0
16.09.2018 02:00:00 9,1 8,9 7,3 11,2 13,9 16,1 7 4 10 6 WSW 1023,2 16 0 0,0
16.09.2018 01:00:00 9,8 9,4 7,5 11,6 14,2 16,1 7 4 18 10 WSW 1023,2 35 0 0,0
16.09.2018 00:00:00 10,1 9,6 8,3 12,0 14,4 16,1 10 5 16 9 WSW 1023,0 34 0 0,0
15.09.2018 23:00:00 10,9 10,0 9,4 12,4 14,7 16,2 13 7 16 9 SW 1022,6 49 0 0,0
15.09.2018 22:00:00 11,2 10,2 9,8 12,9 14,9 16,2 13 7 17 9 SW 1022,5 49 0 0,0
15.09.2018 21:00:00 12,0 10,4 10,3 13,5 15,1 16,2 10 6 18 10 WSW 1022,1 58 0 0,0
15.09.2018 20:00:00 13,5 10,3 12,4 14,2 15,3 16,2 14 7 21 12 WSW 1021,4 67 0 0,0
15.09.2018 19:00:00 14,0 9,9 13,3 14,6 15,4 16,2 14 8 26 14 WSW 1020,9 62 0 0,0
15.09.2018 18:00:00 14,4 9,1 14,0 15,0 15,5 16,2 18 10 29 15 W 1020,9 70 0 0,0
15.09.2018 17:00:00 14,9 8,5 14,5 15,4 15,5 16,2 19 10 37 20 W 1020,6 75 0 0,0
15.09.2018 16:00:00 15,8 9,1 15,6 16,0 15,5 16,2 24 13 36 20 W 1020,3 59 0 0,0
15.09.2018 15:00:00 16,4 8,7 16,6 16,2 15,3 16,2 24 13 39 21 W 1019,5 75 1 0,0
15.09.2018 14:00:00 16,5 8,8 16,7 16,3 15,1 16,2 23 12 39 21 W 1019,1 66 27 0,0
15.09.2018 13:00:00 17,2 10,1 18,5 16,2 14,8 16,2 27 15 41 22 W 1018,5 53 51 0,0
15.09.2018 12:00:00 16,6 10,8 17,8 15,7 14,5 16,2 23 13 37 20 W 1018,4 75 58 0,0
15.09.2018 11:00:00 15,4 11,2 16,7 14,7 14,3 16,2 23 12 31 17 WSW 1018,0 71 60 0,0
15.09.2018 10:00:00 14,1 11,7 14,7 13,7 14,2 16,2 19 10 28 15 WSW 1017,7 59 5 0,5
15.09.2018 09:00:00 13,4 12,1 12,8 13,3 14,2 16,2 17 9 24 13 SW 1017,1 14 49 0,2
15.09.2018 08:00:00 12,5 11,9 12,2 12,7 14,3 16,2 15 8 22 12 SW 1016,4 34 15 0,0
15.09.2018 07:00:00 12,3 11,7 11,4 13,0 14,4 16,2 16 9 23 12 SW 1015,8 22 0 0,0
15.09.2018 06:00:00 12,4 11,8 11,7 13,1 14,5 16,2 14 7 22 12 SW 1015,5 19 0 0,0
15.09.2018 05:00:00 12,9 11,7 12,1 13,3 14,6 16,3 19 10 33 18 SW 1015,7 28 0 0,4
15.09.2018 04:00:00 13,6 10,9 12,9 13,4 14,7 16,3 18 10 29 16 SW 1015,6 36 0 0,0
15.09.2018 03:00:00 14,0 10,6 13,1 13,5 14,8 16,3 19 11 29 15 SW 1015,9 34 0 0,0
15.09.2018 02:00:00 14,0 10,5 13,0 13,6 14,9 16,3 17 9 24 13 SW 1016,1 34 0 0,0
15.09.2018 01:00:00 13,8 10,4 12,5 13,8 15,0 16,3 8 5 14 7 SSW 1016,2 41 0 0,0
15.09.2018 00:00:00 13,7 10,2 12,7 14,0 15,1 16,3 7 4 15 8 S 1016,5 44 0 0,0
14.09.2018 23:00:00 14,3 9,6 13,4 14,1 15,3 16,3 11 6 17 9 SSW 1016,8 53 0 0,0
14.09.2018 22:00:00 13,9 9,1 12,9 14,3 15,4 16,3 10 5 14 8 SW 1017,1 59 0 0,0

tt = Température de l'air
td = dewpoint
tt 5cm = Température de l'air 5cm
tt -5cm = Température de l'air -5cm
tt -20cm = Température de l'air -20cm
tt -100cm = Température de l'air -100cm
ff = Vitesse du vent
fx = gusts
dd = Direction du vent
ppp = reduced air pressure
vv = visibility
sd = Ensoleillement
rr = Quantités de précipitations

stations d'obs. à proximité